[[{"header":{"parameterUnit":"m.s-1","parameterCategory":1,"la1":30.2991,"la2":30.254,"lo1":-89.0895,"lo2":-89.0444,"dy":0.0017,"dx":0.0017,"nx":28,"ny":28,"refTime":"2023-04-08T21:00:00:Z","depth":0,"parameterNumber":2,"parameterNumberName":"U-component_of_WINDS"},"data":[0,0,0,0,0,0,0,0,0,0,0,0,0,0,0,0,0,0,0,0,0,0,0,0,0,0,0,0,0,0,0,0,0,0,0,0,0,0,0,0,0,0,0,0,0,0,0,0,0,0,0,0,0,0,0,0,0,0,-2.2619,-2.2619,0,-2.2672,-2.2673,-2.2673,-2.2628,-2.2626,-2.2624,-2.2623,-2.2676,-2.2679,-2.2682,0,0,0,0,0,0,0,0,0,0,0,0,0,-2.2475,-2.2478,-2.2619,-2.2619,-2.262,-2.2672,-2.2673,-2.2673,-2.2628,-2.2626,-2.2624,-2.2622,-2.2675,-2.2678,-2.2682,0,0,0,0,0,0,0,0,0,0,0,0,0,-2.2534,-2.2479,-2.2619,-2.2604,-2.2603,-2.2672,-2.2673,-2.2674,-2.2629,-2.2626,-2.2623,-2.2621,-2.2673,-2.2678,-2.2683,-2.2768,0,0,-2.2697,-2.2699,0,0,0,0,0,0,0,0,-2.253,-2.2539,-2.2605,-2.2605,-2.2604,-2.2641,-2.2641,-2.2705,-2.263,-2.2619,-2.2623,-2.2619,-2.2666,-2.2671,-2.2687,-2.277,-2.2773,-2.2697,-2.27,-2.2702,-2.2704,0,0,0,0,0,0,0,-2.2526,-2.2536,-2.264,-2.2606,-2.2606,-2.2594,-2.2599,-2.2653,-2.2658,-2.262,-2.2617,-2.2624,-2.2665,-2.2683,-2.2688,-2.2773,-2.2697,-2.2702,-2.2704,-2.2706,-2.2926,-2.2929,0,0,0,0,0,0,-2.2524,-2.2533,-2.2638,-2.2641,-2.256,-2.2598,-2.2604,-2.2632,-2.2657,-2.2658,-2.2626,-2.2621,-2.2676,-2.2683,-2.269,-2.2789,-2.2702,-2.2707,-2.271,-2.2923,-2.2927,-2.293,0,0,0,0,0,0,-2.2521,-2.2534,-2.2636,-2.2587,-2.2599,-2.2604,-2.2635,-2.2634,-2.2652,-2.2662,-2.2662,-2.2643,-2.2674,-2.2683,-2.2748,-2.2791,-2.2709,-2.2713,-2.292,-2.2924,-2.2929,-2.299,0,0,0,0,0,0,-2.2517,-2.2533,-2.2567,-2.2588,-2.2601,-2.2695,-2.2638,-2.2637,-2.266,-2.2655,-2.2678,-2.2679,-2.2673,-2.2742,-2.2753,-2.2796,-2.2717,-2.2916,-2.2922,-2.2927,-2.2985,-2.2996,-2.3007,0,0,0,0,0,-2.2512,-2.2582,-2.2568,-2.2581,-2.2643,-2.2697,-2.2705,-2.2696,-2.2664,-2.2697,-2.2703,-2.2678,-2.2785,-2.2749,-2.2761,-2.2806,-2.2913,-2.292,-2.2927,-2.298,-2.2994,-2.3006,0,0,0,0,0,0,-2.2565,-2.2585,-2.257,-2.2649,-2.2672,-2.2689,-2.2731,-2.2712,-2.2745,-2.2738,-2.2726,-2.2731,-2.2799,-2.2809,-2.2769,-2.2888,-2.2843,-2.2853,-2.2879,-2.2893,-2.2904,-2.2899,-2.2721,0,0,0,0,0,-2.2587,-2.263,-2.2643,-2.2712,-2.2724,-2.2725,-2.2749,-2.274,-2.2763,-2.2772,-2.2783,-2.2806,-2.2844,-2.2869,-2.2905,-2.2986,-2.2989,-2.3023,-2.3034,-2.3043,-2.3051,-2.3092,-2.3106,-2.2952,-2.2952,-2.2952,0,0,-2.263,-2.2646,-2.2674,-2.2723,-2.2739,-2.2783,-2.2734,-2.2782,-2.2814,-2.278,-2.2841,-2.285,-2.2874,-2.2947,-2.298,-2.2957,-2.3094,-2.3052,-2.3059,-2.3062,-2.31,-2.3115,-2.3128,-2.2957,-2.2956,-2.2955,0,0,-2.2731,-2.2749,-2.2806,-2.2824,-2.285,-2.285,-2.2864,-2.2884,-2.2888,-2.295,-2.2925,-2.2962,-2.3028,-2.3046,-2.3064,-2.317,-2.3148,-2.3182,-2.3239,-2.3279,-2.3291,-2.3302,-2.3337,-2.3351,-2.319,-2.319,-2.3191,0,-2.2782,-2.2847,-2.2838,-2.2887,-2.2909,-2.288,-2.2937,-2.2954,-2.2991,-2.3005,-2.298,-2.3062,-2.3076,-2.3151,-2.3177,-2.3193,-2.3207,-2.3179,-2.329,-2.3301,-2.3311,-2.3344,-2.3358,-2.3194,-2.3194,-2.3193,-2.3193,0,-2.2907,-2.2952,-2.2995,-2.3031,-2.3057,-2.311,-2.3108,-2.3135,-2.3124,-2.3127,-2.3189,-2.3205,-2.3242,-2.326,-2.325,-2.3333,-2.3318,-2.3292,-2.3246,-2.3329,-2.3361,-2.3374,-2.32,-2.3198,-2.3197,-2.3196,0,0,-2.3042,-2.3071,-2.3087,-2.3102,-2.3128,-2.3162,-2.3214,-2.325,-2.3273,-2.3299,-2.334,-2.3397,-2.3372,-2.3392,-2.3384,-2.3419,-2.3499,-2.3388,-2.3388,-2.3406,-2.3589,-2.3607,-2.3622,-2.3485,-2.3488,-2.349,-2.3586,0,-2.3143,-2.3232,-2.3225,-2.3309,-2.3349,-2.3322,-2.3366,-2.3386,-2.3389,-2.3423,-2.3427,-2.3466,-2.3432,-2.3443,-2.3478,-2.3482,-2.3535,-2.3475,-2.3522,-2.3523,-2.3514,-2.3639,-2.3659,-2.3749,-2.3599,-2.3601,-2.3602,0,-2.3272,-2.3302,-2.339,-2.3408,-2.3424,-2.3465,-2.3496,-2.353,-2.3551,-2.3551,-2.3573,-2.3558,-2.3608,-2.3562,-2.3629,-2.3589,-2.3607,-2.3612,-2.3615,-2.3618,-2.3566,-2.3643,-2.3778,-2.379,-2.3622,-2.362,-2.3619,0,-2.3359,-2.3422,-2.3482,-2.3495,-2.3519,-2.3547,-2.3558,-2.3577,-2.3598,-2.3626,-2.364,-2.3674,-2.3691,-2.3717,-2.3711,-2.3679,-2.3779,-2.3733,-2.3778,-2.3778,-2.3799,-2.3797,-2.3937,-2.3815,-2.3815,-2.3814,-2.3814,0,-2.3471,-2.3525,-2.3521,-2.3558,-2.3617,-2.3607,-2.3666,-2.3673,-2.369,-2.3726,-2.3705,-2.374,-2.3731,-2.3764,-2.376,-2.3815,-2.3824,-2.3824,-2.3821,-2.3824,-2.3824,-2.3835,-2.3827,-2.3818,-2.3817,-2.3816,-2.3816,0,-2.3577,-2.3577,-2.364,-2.3657,-2.3662,-2.3705,-2.3719,-2.3752,-2.3754,-2.3801,-2.3811,-2.3813,-2.3852,-2.3848,-2.3892,-2.3889,-2.3956,-2.3947,-2.3949,-2.3946,-2.399,-2.3985,-2.414,-2.4158,-2.4026,-2.4028,-2.4029,0,-2.3648,-2.3689,-2.3709,-2.3733,-2.3745,-2.3783,-2.3805,-2.3797,-2.382,-2.3847,-2.3877,-2.3914,-2.3942,-2.4005,-2.401,-2.4042,-2.4033,-2.4085,-2.4038,-2.4039,-2.4031,-2.4027,-2.403,-2.4094,-2.4095,-2.4096,-2.4097,0,-2.3771,-2.3769,-2.3802,-2.3835,-2.3862,-2.3887,-2.391,-2.393,-2.3924,-2.3951,-2.399,-2.4012,-2.4056,-2.4092,-2.4123,-2.4132,-2.4113,-2.4112,-2.4124,-2.4126,-2.4124,-2.4123,-2.3971,-2.4108,-2.4107,-2.4106,-2.4106,-2.4105,-2.386,-2.3894,-2.3914,-2.3951,-2.3967,-2.3989,-2.4021,-2.4026,-2.4059,-2.4094,-2.4087,-2.4131,-2.4149,-2.4188,-2.4201,-2.4234,-2.4215,-2.4233,-2.4237,-2.424,-2.4244,-2.4121,-2.424,-2.4239,-2.4239,-2.4239,-2.4239,0,-2.398,-2.3992,-2.4026,-2.4058,-2.4087,-2.4068,-2.4091,-2.4116,-2.4155,-2.4174,-2.4202,-2.4246,-2.4281,-2.4288,-2.432,-2.4345,-2.4337,-2.4354,-2.435,-2.4352,-2.4261,-2.4246,-2.436,-2.4359,-2.4359,-2.4359,-2.4359,-2.4359,-2.4046,-2.4102,-2.4102,-2.4165,-2.4176,-2.4218,-2.4233,-2.4253,-2.4268,-2.4318,-2.4346,-2.4351,-2.4365,-2.4398,-2.4428,-2.4429,-2.4441,-2.446,-2.4458,-2.4372,-2.4359,-2.4348,-2.4334,-2.4464,-2.4464,-2.4546,-2.4547,-2.4548]},{"header":{"parameterUnit":"m.s-1","parameterCategory":1,"la1":30.2991,"la2":30.254,"lo1":-89.0895,"lo2":-89.0444,"dy":0.0017,"dx":0.0017,"nx":28,"ny":28,"refTime":"2023-04-08T21:00:00:Z","depth":0,"parameterNumber":3,"parameterNumberName":"V-component_of_WINDS"},"data":[0,0,0,0,0,0,0,0,0,0,0,0,0,0,0,0,0,0,0,0,0,0,0,0,0,0,0,0,0,0,0,0,0,0,0,0,0,0,0,0,0,0,0,0,0,0,0,0,0,0,0,0,0,0,0,0,0,0,-0.5048,-0.5049,0,-0.5145,-0.5146,-0.5147,-0.5168,-0.5167,-0.5166,-0.5166,-0.5263,-0.5266,-0.527,0,0,0,0,0,0,0,0,0,0,0,0,0,-0.4879,-0.4882,-0.5048,-0.5049,-0.505,-0.5144,-0.5146,-0.5147,-0.5168,-0.5167,-0.5166,-0.5165,-0.5262,-0.5266,-0.527,0,0,0,0,0,0,0,0,0,0,0,0,0,-0.4962,-0.4883,-0.5048,-0.5072,-0.5075,-0.5144,-0.5146,-0.5147,-0.5168,-0.5167,-0.5166,-0.5165,-0.5261,-0.5266,-0.5271,-0.5322,0,0,-0.5285,-0.5288,0,0,0,0,0,0,0,0,-0.4957,-0.4968,-0.5067,-0.5071,-0.5074,-0.5143,-0.5122,-0.5206,-0.5168,-0.5133,-0.5166,-0.5164,-0.5224,-0.5232,-0.5252,-0.5326,-0.533,-0.5286,-0.5289,-0.5291,-0.5292,0,0,0,0,0,0,0,-0.4951,-0.4964,-0.5086,-0.5069,-0.5073,-0.5077,-0.5088,-0.5138,-0.5183,-0.5136,-0.5137,-0.5149,-0.5226,-0.5248,-0.5255,-0.5332,-0.5286,-0.529,-0.5293,-0.5295,-0.5451,-0.5453,0,0,0,0,0,0,-0.4942,-0.4959,-0.5083,-0.5089,-0.5012,-0.5081,-0.5093,-0.5122,-0.5183,-0.5191,-0.5149,-0.5149,-0.524,-0.5249,-0.5258,-0.5322,-0.5291,-0.5295,-0.5298,-0.545,-0.5452,-0.5453,0,0,0,0,0,0,-0.4938,-0.4953,-0.5079,-0.5025,-0.5041,-0.5085,-0.5118,-0.5124,-0.5146,-0.5193,-0.5201,-0.5164,-0.5239,-0.5251,-0.5306,-0.5326,-0.5298,-0.5302,-0.5449,-0.5451,-0.5452,-0.5451,0,0,0,0,0,0,-0.4933,-0.4951,-0.4972,-0.5025,-0.5044,-0.5126,-0.5119,-0.5127,-0.5155,-0.5156,-0.5208,-0.5216,-0.5239,-0.5298,-0.531,-0.5332,-0.5306,-0.5447,-0.545,-0.5452,-0.5449,-0.5452,-0.5455,0,0,0,0,0,-0.4927,-0.4967,-0.4973,-0.4988,-0.5071,-0.5127,-0.5138,-0.5164,-0.5156,-0.5177,-0.5207,-0.5215,-0.5321,-0.5304,-0.5318,-0.5341,-0.5446,-0.5449,-0.5452,-0.5448,-0.5452,-0.5455,0,0,0,0,0,0,-0.4916,-0.4975,-0.4982,-0.5041,-0.5079,-0.513,-0.5158,-0.5167,-0.5208,-0.5207,-0.5237,-0.5249,-0.5301,-0.5326,-0.5306,-0.5393,-0.5383,-0.5389,-0.5376,-0.538,-0.5382,-0.5376,-0.531,0,0,0,0,0,-0.492,-0.4961,-0.501,-0.5058,-0.5076,-0.5113,-0.5139,-0.5156,-0.5196,-0.5212,-0.5246,-0.5285,-0.5327,-0.5354,-0.5395,-0.5452,-0.5464,-0.5475,-0.5477,-0.5479,-0.5485,-0.5516,-0.5522,-0.5462,-0.5462,-0.5462,0,0,-0.4929,-0.4967,-0.4991,-0.5056,-0.5088,-0.5129,-0.5127,-0.5171,-0.5202,-0.5219,-0.5273,-0.5298,-0.5343,-0.5399,-0.5425,-0.5421,-0.5503,-0.5483,-0.5484,-0.5489,-0.5519,-0.5525,-0.553,-0.5464,-0.5464,-0.5463,0,0,-0.4969,-0.5001,-0.5044,-0.5075,-0.5123,-0.5147,-0.5157,-0.5207,-0.5225,-0.5279,-0.5292,-0.5328,-0.54,-0.5432,-0.5457,-0.5505,-0.5514,-0.5517,-0.5533,-0.5563,-0.5568,-0.5572,-0.559,-0.5596,-0.5522,-0.5522,-0.5522,0,-0.4975,-0.5039,-0.5065,-0.5109,-0.5137,-0.5152,-0.5196,-0.5225,-0.5283,-0.5302,-0.5296,-0.5386,-0.5417,-0.548,-0.5492,-0.5511,-0.5524,-0.5513,-0.5565,-0.557,-0.5574,-0.5592,-0.5598,-0.5522,-0.5522,-0.5522,-0.5522,0,-0.5044,-0.5088,-0.5117,-0.5173,-0.5204,-0.5247,-0.5279,-0.5306,-0.5319,-0.5343,-0.5397,-0.5435,-0.5484,-0.5499,-0.5513,-0.5564,-0.556,-0.5559,-0.5551,-0.558,-0.5597,-0.5604,-0.5523,-0.5523,-0.5522,-0.5522,0,0,-0.5082,-0.5151,-0.5161,-0.5187,-0.5239,-0.5273,-0.5316,-0.5364,-0.5387,-0.5426,-0.5463,-0.5522,-0.5521,-0.555,-0.5566,-0.5592,-0.5628,-0.5588,-0.559,-0.5595,-0.5687,-0.5688,-0.5696,-0.5633,-0.5634,-0.5635,-0.5683,0,-0.5129,-0.5208,-0.5231,-0.5297,-0.5338,-0.5352,-0.539,-0.5425,-0.5448,-0.5485,-0.5509,-0.5551,-0.5547,-0.5564,-0.559,-0.5618,-0.5647,-0.5614,-0.5667,-0.5669,-0.5658,-0.5704,-0.5707,-0.5751,-0.569,-0.5691,-0.5692,0,-0.5196,-0.5236,-0.5306,-0.5352,-0.537,-0.5404,-0.5449,-0.5484,-0.5523,-0.5538,-0.5569,-0.5582,-0.5626,-0.5612,-0.5673,-0.5651,-0.5673,-0.5689,-0.5691,-0.5699,-0.5684,-0.5715,-0.5765,-0.5773,-0.5702,-0.5701,-0.5701,0,-0.5218,-0.5289,-0.534,-0.5361,-0.5416,-0.5439,-0.5463,-0.5502,-0.5529,-0.5567,-0.5585,-0.5627,-0.5651,-0.5684,-0.5708,-0.5695,-0.5766,-0.5755,-0.578,-0.5779,-0.5797,-0.5796,-0.5853,-0.5807,-0.5807,-0.5807,-0.5807,0,-0.5269,-0.5312,-0.5351,-0.5383,-0.5431,-0.5456,-0.5502,-0.5526,-0.5559,-0.5595,-0.5609,-0.5642,-0.567,-0.5707,-0.5725,-0.5773,-0.5783,-0.5796,-0.5801,-0.5796,-0.5795,-0.5813,-0.5811,-0.5809,-0.5808,-0.5808,-0.5808,0,-0.5304,-0.5332,-0.5389,-0.5436,-0.5448,-0.5481,-0.5521,-0.5551,-0.5573,-0.5618,-0.563,-0.5664,-0.5708,-0.5734,-0.5789,-0.5801,-0.5854,-0.5856,-0.5841,-0.5844,-0.5868,-0.5866,-0.5941,-0.5952,-0.5897,-0.5897,-0.5898,0,-0.5337,-0.537,-0.542,-0.5445,-0.5469,-0.5509,-0.5537,-0.5561,-0.5589,-0.5635,-0.566,-0.5704,-0.5741,-0.5809,-0.5838,-0.588,-0.5885,-0.5908,-0.5891,-0.5885,-0.5887,-0.5885,-0.5889,-0.5912,-0.5912,-0.5912,-0.5913,0,-0.5392,-0.5403,-0.5443,-0.5487,-0.5519,-0.5554,-0.559,-0.5609,-0.5639,-0.5669,-0.5714,-0.5742,-0.5797,-0.5841,-0.5884,-0.5907,-0.5915,-0.5917,-0.5925,-0.5922,-0.5913,-0.5919,-0.5851,-0.5916,-0.5916,-0.5916,-0.5915,-0.5915,-0.5428,-0.5458,-0.5497,-0.554,-0.5569,-0.5601,-0.5632,-0.5657,-0.5695,-0.5743,-0.5754,-0.5801,-0.5837,-0.5896,-0.592,-0.5956,-0.5952,-0.5964,-0.5967,-0.597,-0.5972,-0.5904,-0.5963,-0.5963,-0.5963,-0.5963,-0.5963,0,-0.5485,-0.551,-0.555,-0.5599,-0.5632,-0.5635,-0.5673,-0.5701,-0.5742,-0.5776,-0.5811,-0.5862,-0.5903,-0.5934,-0.5976,-0.5999,-0.6003,-0.6009,-0.6009,-0.6014,-0.5972,-0.5961,-0.6005,-0.6005,-0.6005,-0.6005,-0.6005,-0.6005,-0.5519,-0.557,-0.5586,-0.565,-0.5675,-0.5722,-0.5744,-0.5773,-0.5799,-0.5855,-0.589,-0.591,-0.5942,-0.5986,-0.6024,-0.6031,-0.6047,-0.6052,-0.6061,-0.6022,-0.6017,-0.6013,-0.6003,-0.6055,-0.6055,-0.6101,-0.6101,-0.6101]}]]